GW1999 Weather Reports


time (UTC)temp
F
wind
direction
speed
knots
gust
knots
rain 1hr
in
rain 24hr
in
rain mn
in
humidity
%
barometer
mb
20260503224516 68 202 0.9 5.2 0.00 0.00 0.00 38 1016.6
20260503223038 68 209 2.6 8.7 0.00 0.00 0.00 40 1016.5
20260503221556 68 224 2.6 6.1 0.00 0.00 0.00 37 1016.5
20260503220037 69 217 0.9 6.1 0.00 0.00 0.00 34 1016.7
20260503214553 69 227 2.6 7.0 0.00 0.00 0.00 35 1016.8
20260503213016 70 167 3.5 8.7 0.00 0.00 0.00 33 1016.8
20260503211553 70 208 0.9 6.1 0.00 0.00 0.00 35 1017.1
20260503210014 71 153 1.7 7.8 0.00 0.00 0.00 36 1017.1
20260503204553 70 193 1.7 7.0 0.00 0.00 0.00 34 1017.1
20260503203018 69 203 3.5 8.7 0.00 0.00 0.00 35 1017.4
20260503201530 70 240 2.6 6.1 0.00 0.00 0.00 32 1017.7
20260503200012 70 34 1.7 8.7 0.00 0.00 0.00 33 1017.9
20260503194532 70 175 1.7 7.8 0.00 0.00 0.00 37 1018.1
20260503193012 69 118 1.7 8.7 0.00 0.00 0.00 35 1018.3
20260503191533 70 165 1.7 7.0 0.00 0.00 0.00 36 1018.6
20260503190033 69 39 1.7 7.8 0.00 0.00 0.00 34 1018.9
20260503184555 68 220 0.9 4.3 0.00 0.00 0.00 36 1019.1
20260503183034 69 256 3.5 9.6 0.00 0.00 0.00 33 1019.1
20260503181542 68 216 1.7 7.0 0.00 0.00 0.00 37 1019.2
20260503180058 68 1 1.7 7.0 0.00 0.00 0.00 36 1019.3
20260503174539 67 359 1.7 6.1 0.00 0.00 0.00 38 1019.4
20260503173101 66 301 1.7 8.7 0.00 0.00 0.00 38 1019.6
20260503171537 67 118 0.0 5.2 0.00 0.00 0.00 39 1020.0
20260503081535 39 26 0.0 0.0 0.00 0.00 0.00 89 1018.3
20260503071537 41 342 0.0 0.0 0.00 0.00 0.00 88 1017.6
20260503070103 42 343 0.0 0.0 0.00 0.00 0.00 88 1017.2
20260503060103 43 356 0.0 0.0 0.00 0.00 0.00 83 1017.2
20260503054521 44 356 0.0 0.0 0.00 0.00 0.00 82 1017.2
20260503053043 44 356 0.0 0.0 0.00 0.00 0.00 82 1017.3
20260503051524 45 347 0.9 1.7 0.00 0.00 0.00 81 1017.3
20260503050051 45 322 0.0 0.0 0.00 0.00 0.00 78 1017.2
20260503044531 47 294 0.0 0.0 0.00 0.00 0.00 77 1016.9
20260503043044 47 307 0.0 0.0 0.00 0.00 0.00 75 1016.8
20260503041529 48 311 0.0 1.7 0.00 0.00 0.00 77 1016.8
20260503040048 49 350 0.0 1.7 0.00 0.00 0.00 75 1016.6
20260503034546 50 303 0.0 1.7 0.00 0.00 0.00 71 1016.5
20260503033134 52 349 0.0 1.7 0.00 0.00 0.00 58 1016.3
20260503031520 54 352 0.0 1.7 0.00 0.00 0.00 53 1016.2
20260503030107 54 359 0.0 2.6 0.00 0.00 0.00 49 1016.0
20260503024518 55 359 0.9 2.6 0.00 0.00 0.00 48 1016.0
20260503023051 55 18 0.9 1.7 0.00 0.00 0.00 50 1016.0
20260503021516 56 346 0.0 0.0 0.00 0.00 0.00 49 1015.8
20260503020056 57 346 0.0 0.9 0.00 0.00 0.00 48 1015.5
20260503014533 58 356 0.0 2.6 0.00 0.00 0.00 48 1015.2
20260503013052 58 360 1.7 5.2 0.00 0.00 0.00 48 1014.9
20260503011516 59 360 1.7 3.5 0.00 0.00 0.00 49 1014.5
20260503010034 59 1 0.9 2.6 0.00 0.00 0.00 54 1014.2
20260503004514 59 24 0.0 1.7 0.00 0.00 0.00 59 1013.7
20260503003038 60 13 0.0 0.0 0.00 0.00 0.00 64 1013.5
20260503001604 60 13 0.0 0.9 0.00 0.00 0.00 65 1013.4
20260503001502 60 13 0.0 0.9 0.00 0.00 0.00 65 1013.5
20260503000107 61 15 0.0 2.6 0.00 0.00 0.00 64 1013.3
20260502234507 61 257 0.0 1.7 0.00 0.00 0.00 62 1012.9
20260502233024 61 194 0.0 1.7 0.00 0.00 0.00 61 1012.7
20260502231612 62 197 0.0 1.7 0.00 0.00 0.00 61 1012.3
20260502231502 62 137 0.0 1.7 0.00 0.00 0.00 62 1012.3
20260502230022 63 209 0.9 3.5 0.00 0.00 0.00 52 1012.4